COSMOS 2513

Last updated on Mon Oct 14 2024 00:02:40 GMT+0000 (Coordinated Universal Time)

1 41121U 15075A 24287.51660525 -.00000140 00000+0 00000+0 0 9994 2 41121 0.0549 100.0665 0002842 152.8420 35.9066 1.00270510 32465
UTC large
Height (km)
Speed (km/s)
/
Latitude / Longitude
Inclination (degrees)
Orbital Period (minutes)
Azimuth
Elevation
Range (km)
Doppler Factor

Next 0 passes for location: London (51.5072 / 0.1276)

Sorry there are no passes over London.